contact:dominique.lefevre@mio.osupytheas.fr, maurice.libes@osupytheas.fr, didier.mallarino@osupytheas.fr
Project:EMSO http://www.emso-fr.org/EMSO-France
Depth: 2436.0 m
Title:EMSO Ligure Ouest : Data MII capteur MICROCAT
DateTime_Computer,Latitude,Longitude,Temperature,Conductivity,Pressure,DateTime_Instrument
DateTime_Computer,Latitude,Longitude,degC,S m-1,dbar,DateTime_Instrument
2020-11-26T00:00:33Z,42.805,6.029,13.2974,4.59979,2470.18,2020-11-26T02:01:30Z
2020-11-26T00:03:36Z,42.805,6.029,13.2972,4.59978,2470.18,2020-11-26T02:04:33Z
2020-11-26T00:06:39Z,42.805,6.029,13.2974,4.59978,2470.18,2020-11-26T02:07:36Z
2020-11-26T00:09:42Z,42.805,6.029,13.2977,4.59979,2470.18,2020-11-26T02:10:39Z
2020-11-26T00:12:45Z,42.805,6.029,13.2976,4.59978,2470.171,2020-11-26T02:13:42Z
2020-11-26T00:15:48Z,42.805,6.029,13.2979,4.59978,2470.194,2020-11-26T02:16:46Z
2020-11-26T00:18:51Z,42.805,6.029,13.2973,4.59978,2470.18,2020-11-26T02:19:49Z
2020-11-26T00:21:54Z,42.805,6.029,13.2977,4.59978,2470.18,2020-11-26T02:22:52Z
2020-11-26T00:24:58Z,42.805,6.029,13.2976,4.59978,2470.217,2020-11-26T02:25:55Z
2020-11-26T00:28:01Z,42.805,6.029,13.2971,4.59979,2470.194,2020-11-26T02:28:58Z
2020-11-26T00:31:04Z,42.805,6.029,13.2977,4.59978,2470.203,2020-11-26T02:32:01Z
2020-11-26T00:34:07Z,42.805,6.029,13.2976,4.59978,2470.156,2020-11-26T02:35:04Z
2020-11-26T00:37:10Z,42.805,6.029,13.2976,4.59978,2470.156,2020-11-26T02:38:07Z
2020-11-26T00:40:13Z,42.805,6.029,13.2975,4.59978,2470.171,2020-11-26T02:41:11Z
2020-11-26T00:43:16Z,42.805,6.029,13.2969,4.59978,2470.156,2020-11-26T02:44:14Z
2020-11-26T00:46:19Z,42.805,6.029,13.2974,4.59978,2470.156,2020-11-26T02:47:17Z
2020-11-26T00:49:23Z,42.805,6.029,13.2973,4.59978,2470.18,2020-11-26T02:50:20Z
2020-11-26T00:52:26Z,42.805,6.029,13.2976,4.59978,2470.18,2020-11-26T02:53:23Z
2020-11-26T00:55:29Z,42.805,6.029,13.2976,4.59978,2470.156,2020-11-26T02:56:26Z
2020-11-26T00:58:32Z,42.805,6.029,13.2980,4.59978,2470.18,2020-11-26T02:59:29Z
2020-11-26T01:01:35Z,42.805,6.029,13.2976,4.59978,2470.189,2020-11-26T03:02:32Z
2020-11-26T01:04:38Z,42.805,6.029,13.2975,4.59978,2470.156,2020-11-26T03:05:36Z
2020-11-26T01:07:41Z,42.805,6.029,13.2975,4.59978,2470.18,2020-11-26T03:08:39Z
2020-11-26T01:10:44Z,42.805,6.029,13.2974,4.59978,2470.171,2020-11-26T03:11:42Z
2020-11-26T01:13:48Z,42.805,6.029,13.2977,4.59978,2470.18,2020-11-26T03:14:45Z
2020-11-26T01:16:51Z,42.805,6.029,13.2974,4.59980,2470.194,2020-11-26T03:17:48Z
2020-11-26T01:19:54Z,42.805,6.029,13.2974,4.59978,2470.203,2020-11-26T03:20:51Z
2020-11-26T01:22:57Z,42.805,6.029,13.2975,4.59979,2470.194,2020-11-26T03:23:54Z
2020-11-26T01:26:00Z,42.805,6.029,13.2976,4.59979,2470.217,2020-11-26T03:26:57Z
2020-11-26T01:29:03Z,42.805,6.029,13.2974,4.59978,2470.18,2020-11-26T03:30:01Z
2020-11-26T01:32:06Z,42.805,6.029,13.2975,4.59978,2470.24,2020-11-26T03:33:04Z
2020-11-26T01:35:09Z,42.805,6.029,13.2979,4.59979,2470.18,2020-11-26T03:36:07Z
2020-11-26T01:38:13Z,42.805,6.029,13.2974,4.59978,2470.203,2020-11-26T03:39:10Z
2020-11-26T01:41:16Z,42.805,6.029,13.2975,4.59978,2470.217,2020-11-26T03:42:13Z
2020-11-26T01:44:19Z,42.805,6.029,13.2974,4.59978,2470.217,2020-11-26T03:45:16Z
2020-11-26T01:47:22Z,42.805,6.029,13.2974,4.59978,2470.24,2020-11-26T03:48:19Z
2020-11-26T01:50:25Z,42.805,6.029,13.2971,4.59978,2470.24,2020-11-26T03:51:22Z
2020-11-26T01:53:28Z,42.805,6.029,13.2975,4.59978,2470.217,2020-11-26T03:54:25Z
2020-11-26T01:56:31Z,42.805,6.029,13.2974,4.59978,2470.18,2020-11-26T03:57:29Z
2020-11-26T01:59:34Z,42.805,6.029,13.2977,4.59978,2470.227,2020-11-26T04:00:32Z
2020-11-26T02:02:37Z,42.805,6.029,13.2976,4.59979,2470.227,2020-11-26T04:03:35Z
2020-11-26T02:05:41Z,42.805,6.029,13.2974,4.59978,2470.25,2020-11-26T04:06:38Z
2020-11-26T02:08:44Z,42.805,6.029,13.2976,4.59978,2470.217,2020-11-26T04:09:41Z
2020-11-26T02:11:47Z,42.805,6.029,13.2976,4.59978,2470.25,2020-11-26T04:12:44Z
2020-11-26T02:14:50Z,42.805,6.029,13.2978,4.59978,2470.203,2020-11-26T04:15:47Z
2020-11-26T02:17:53Z,42.805,6.029,13.2978,4.59979,2470.227,2020-11-26T04:18:50Z
2020-11-26T02:20:56Z,42.805,6.029,13.2973,4.59978,2470.217,2020-11-26T04:21:54Z
2020-11-26T02:23:59Z,42.805,6.029,13.2976,4.59980,2470.264,2020-11-26T04:24:57Z
2020-11-26T02:27:02Z,42.805,6.029,13.2976,4.59978,2470.24,2020-11-26T04:28:00Z
2020-11-26T02:30:06Z,42.805,6.029,13.2979,4.59978,2470.227,2020-11-26T04:31:03Z
2020-11-26T02:33:09Z,42.805,6.029,13.2976,4.59978,2470.25,2020-11-26T04:34:06Z
2020-11-26T02:36:12Z,42.805,6.029,13.2976,4.59978,2470.24,2020-11-26T04:37:09Z
2020-11-26T02:39:15Z,42.805,6.029,13.2977,4.59978,2470.227,2020-11-26T04:40:12Z
2020-11-26T02:42:18Z,42.805,6.029,13.2976,4.59978,2470.227,2020-11-26T04:43:15Z
2020-11-26T02:45:21Z,42.805,6.029,13.2977,4.59978,2470.264,2020-11-26T04:46:19Z
2020-11-26T02:48:24Z,42.805,6.029,13.2979,4.59979,2470.25,2020-11-26T04:49:22Z
2020-11-26T02:51:27Z,42.805,6.029,13.2972,4.59979,2470.24,2020-11-26T04:52:25Z
2020-11-26T02:54:31Z,42.805,6.029,13.2974,4.59978,2470.227,2020-11-26T04:55:28Z
2020-11-26T02:57:34Z,42.805,6.029,13.2973,4.59978,2470.25,2020-11-26T04:58:31Z
2020-11-26T03:00:37Z,42.805,6.029,13.2975,4.59978,2470.24,2020-11-26T05:01:34Z
2020-11-26T03:03:40Z,42.805,6.029,13.2976,4.59978,2470.25,2020-11-26T05:04:37Z
2020-11-26T03:06:43Z,42.805,6.029,13.2972,4.59978,2470.25,2020-11-26T05:07:40Z
2020-11-26T03:09:46Z,42.805,6.029,13.2973,4.59978,2470.264,2020-11-26T05:10:44Z
2020-11-26T03:12:49Z,42.805,6.029,13.2974,4.59978,2470.25,2020-11-26T05:13:47Z
2020-11-26T03:15:52Z,42.805,6.029,13.2976,4.59978,2470.25,2020-11-26T05:16:50Z
2020-11-26T03:18:56Z,42.805,6.029,13.2974,4.59978,2470.273,2020-11-26T05:19:53Z
2020-11-26T03:21:59Z,42.805,6.029,13.2976,4.59978,2470.25,2020-11-26T05:22:56Z
2020-11-26T03:25:02Z,42.805,6.029,13.2974,4.59978,2470.25,2020-11-26T05:25:59Z
2020-11-26T03:28:05Z,42.805,6.029,13.2979,4.59978,2470.264,2020-11-26T05:29:02Z
2020-11-26T03:31:08Z,42.805,6.029,13.2979,4.59978,2470.25,2020-11-26T05:32:05Z
2020-11-26T03:34:11Z,42.805,6.029,13.2974,4.59977,2470.297,2020-11-26T05:35:08Z
2020-11-26T03:37:14Z,42.805,6.029,13.2974,4.59978,2470.213,2020-11-26T05:38:12Z
2020-11-26T03:40:17Z,42.805,6.029,13.2978,4.59978,2470.287,2020-11-26T05:41:15Z
2020-11-26T03:43:20Z,42.805,6.029,13.2976,4.59978,2470.287,2020-11-26T05:44:18Z
2020-11-26T03:46:24Z,42.805,6.029,13.2972,4.59978,2470.24,2020-11-26T05:47:21Z
2020-11-26T03:49:27Z,42.805,6.029,13.2974,4.59978,2470.273,2020-11-26T05:50:24Z
2020-11-26T03:52:30Z,42.805,6.029,13.2974,4.59979,2470.31,2020-11-26T05:53:27Z
2020-11-26T03:55:33Z,42.805,6.029,13.2976,4.59978,2470.297,2020-11-26T05:56:30Z
2020-11-26T03:58:36Z,42.805,6.029,13.2977,4.59978,2470.31,2020-11-26T05:59:33Z
2020-11-26T04:01:39Z,42.805,6.029,13.2976,4.59978,2470.273,2020-11-26T06:02:37Z
2020-11-26T04:04:42Z,42.805,6.029,13.2971,4.59978,2470.287,2020-11-26T06:05:40Z
2020-11-26T04:07:45Z,42.805,6.029,13.2976,4.59977,2470.287,2020-11-26T06:08:43Z
2020-11-26T04:10:49Z,42.805,6.029,13.2974,4.59978,2470.227,2020-11-26T06:11:46Z
2020-11-26T04:13:52Z,42.805,6.029,13.2975,4.59976,2470.273,2020-11-26T06:14:49Z
2020-11-26T04:16:55Z,42.805,6.029,13.2974,4.59977,2470.297,2020-11-26T06:17:52Z
2020-11-26T04:19:58Z,42.805,6.029,13.2974,4.59978,2470.297,2020-11-26T06:20:55Z
2020-11-26T04:23:01Z,42.805,6.029,13.2979,4.59976,2470.25,2020-11-26T06:23:59Z
2020-11-26T04:26:04Z,42.805,6.029,13.2976,4.59978,2470.273,2020-11-26T06:27:02Z
2020-11-26T04:29:07Z,42.805,6.029,13.2975,4.59977,2470.273,2020-11-26T06:30:05Z
2020-11-26T04:32:10Z,42.805,6.029,13.2973,4.59978,2470.273,2020-11-26T06:33:08Z
2020-11-26T04:35:14Z,42.805,6.029,13.2971,4.59977,2470.273,2020-11-26T06:36:11Z
2020-11-26T04:38:17Z,42.805,6.029,13.2976,4.59978,2470.31,2020-11-26T06:39:14Z
2020-11-26T04:41:20Z,42.805,6.029,13.2975,4.59978,2470.287,2020-11-26T06:42:17Z
2020-11-26T04:44:23Z,42.805,6.029,13.2973,4.59977,2470.297,2020-11-26T06:45:20Z
2020-11-26T04:47:26Z,42.805,6.029,13.2975,4.59977,2470.297,2020-11-26T06:48:23Z
2020-11-26T04:50:29Z,42.805,6.029,13.2974,4.59976,2470.273,2020-11-26T06:51:27Z
2020-11-26T04:53:32Z,42.805,6.029,13.2975,4.59978,2470.31,2020-11-26T06:54:30Z
2020-11-26T04:56:35Z,42.805,6.029,13.2974,4.59978,2470.31,2020-11-26T06:57:33Z
2020-11-26T04:59:39Z,42.805,6.029,13.2971,4.59978,2470.334,2020-11-26T07:00:36Z
2020-11-26T05:02:42Z,42.805,6.029,13.2971,4.59978,2470.32,2020-11-26T07:03:39Z
2020-11-26T05:05:45Z,42.805,6.029,13.2974,4.59978,2470.287,2020-11-26T07:06:42Z
2020-11-26T05:08:48Z,42.805,6.029,13.2974,4.59978,2470.31,2020-11-26T07:09:45Z
2020-11-26T05:11:51Z,42.805,6.029,13.2972,4.59977,2470.297,2020-11-26T07:12:48Z
2020-11-26T05:14:54Z,42.805,6.029,13.2974,4.59978,2470.297,2020-11-26T07:15:52Z
2020-11-26T05:17:57Z,42.805,6.029,13.2977,4.59978,2470.297,2020-11-26T07:18:55Z
2020-11-26T05:21:00Z,42.805,6.029,13.2976,4.59979,2470.31,2020-11-26T07:21:58Z
2020-11-26T05:24:04Z,42.805,6.029,13.2974,4.59978,2470.297,2020-11-26T07:25:01Z
2020-11-26T05:27:07Z,42.805,6.029,13.2974,4.59979,2470.31,2020-11-26T07:28:04Z
2020-11-26T05:30:10Z,42.805,6.029,13.2974,4.59978,2470.297,2020-11-26T07:31:07Z
2020-11-26T05:33:13Z,42.805,6.029,13.2972,4.59978,2470.273,2020-11-26T07:34:10Z
2020-11-26T05:36:16Z,42.805,6.029,13.2979,4.59978,2470.297,2020-11-26T07:37:13Z
2020-11-26T05:39:19Z,42.805,6.029,13.2977,4.59978,2470.287,2020-11-26T07:40:17Z
2020-11-26T05:42:22Z,42.805,6.029,13.2976,4.59978,2470.287,2020-11-26T07:43:20Z
2020-11-26T05:45:25Z,42.805,6.029,13.2974,4.59977,2470.287,2020-11-26T07:46:23Z
2020-11-26T05:48:29Z,42.805,6.029,13.2972,4.59978,2470.31,2020-11-26T07:49:26Z
2020-11-26T05:51:32Z,42.805,6.029,13.2979,4.59977,2470.31,2020-11-26T07:52:29Z
2020-11-26T05:54:35Z,42.805,6.029,13.2977,4.59981,2470.31,2020-11-26T07:55:32Z
2020-11-26T05:57:38Z,42.805,6.029,13.2975,4.59978,2470.297,2020-11-26T07:58:35Z
2020-11-26T06:00:41Z,42.805,6.029,13.2974,4.59977,2470.273,2020-11-26T08:01:38Z
2020-11-26T06:03:44Z,42.805,6.029,13.2974,4.59978,2470.297,2020-11-26T08:04:42Z
2020-11-26T06:06:47Z,42.805,6.029,13.2975,4.59979,2470.32,2020-11-26T08:07:45Z
2020-11-26T06:09:50Z,42.805,6.029,13.2975,4.59976,2470.297,2020-11-26T08:10:48Z
2020-11-26T06:12:53Z,42.805,6.029,13.2973,4.59978,2470.297,2020-11-26T08:13:51Z
2020-11-26T06:15:57Z,42.805,6.029,13.2974,4.59978,2470.273,2020-11-26T08:16:54Z
2020-11-26T06:19:00Z,42.805,6.029,13.2974,4.59976,2470.297,2020-11-26T08:19:57Z
2020-11-26T06:22:03Z,42.805,6.029,13.2978,4.59979,2470.287,2020-11-26T08:23:00Z
2020-11-26T06:25:06Z,42.805,6.029,13.2974,4.59978,2470.25,2020-11-26T08:26:03Z
2020-11-26T06:28:09Z,42.805,6.029,13.2973,4.59977,2470.25,2020-11-26T08:29:06Z
2020-11-26T06:31:12Z,42.805,6.029,13.2977,4.59978,2470.297,2020-11-26T08:32:10Z
2020-11-26T06:34:15Z,42.805,6.029,13.2974,4.59978,2470.287,2020-11-26T08:35:13Z
2020-11-26T06:37:18Z,42.805,6.029,13.2974,4.59977,2470.334,2020-11-26T08:38:16Z
2020-11-26T06:40:22Z,42.805,6.029,13.2974,4.59977,2470.273,2020-11-26T08:41:19Z
2020-11-26T06:43:25Z,42.805,6.029,13.2974,4.59978,2470.287,2020-11-26T08:44:22Z
2020-11-26T06:46:28Z,42.805,6.029,13.2973,4.59977,2470.287,2020-11-26T08:47:25Z
2020-11-26T06:49:31Z,42.805,6.029,13.2974,4.59979,2470.297,2020-11-26T08:50:28Z
2020-11-26T06:52:34Z,42.805,6.029,13.2974,4.59977,2470.31,2020-11-26T08:53:31Z
2020-11-26T06:55:37Z,42.805,6.029,13.2976,4.59978,2470.297,2020-11-26T08:56:35Z
2020-11-26T06:58:40Z,42.805,6.029,13.2974,4.59979,2470.297,2020-11-26T08:59:38Z
2020-11-26T07:01:43Z,42.805,6.029,13.2974,4.59978,2470.297,2020-11-26T09:02:41Z
2020-11-26T07:04:47Z,42.805,6.029,13.2972,4.59978,2470.287,2020-11-26T09:05:44Z
2020-11-26T07:07:50Z,42.805,6.029,13.2975,4.59978,2470.297,2020-11-26T09:08:47Z
2020-11-26T07:10:53Z,42.805,6.029,13.2975,4.59978,2470.264,2020-11-26T09:11:50Z
2020-11-26T07:13:56Z,42.805,6.029,13.2976,4.59978,2470.287,2020-11-26T09:14:53Z
2020-11-26T07:16:59Z,42.805,6.029,13.2975,4.59977,2470.287,2020-11-26T09:17:56Z
2020-11-26T07:20:02Z,42.805,6.029,13.2971,4.59978,2470.273,2020-11-26T09:21:00Z
2020-11-26T07:23:05Z,42.805,6.029,13.2974,4.59978,2470.264,2020-11-26T09:24:03Z
2020-11-26T07:26:08Z,42.805,6.029,13.2975,4.59977,2470.273,2020-11-26T09:27:06Z
2020-11-26T07:29:11Z,42.805,6.029,13.2979,4.59978,2470.25,2020-11-26T09:30:09Z
2020-11-26T07:32:15Z,42.805,6.029,13.2978,4.59978,2470.273,2020-11-26T09:33:12Z
2020-11-26T07:35:18Z,42.805,6.029,13.2975,4.59978,2470.25,2020-11-26T09:36:15Z
2020-11-26T07:38:21Z,42.805,6.029,13.2973,4.59978,2470.264,2020-11-26T09:39:18Z
2020-11-26T07:41:24Z,42.805,6.029,13.2974,4.59978,2470.273,2020-11-26T09:42:21Z
2020-11-26T07:44:27Z,42.805,6.029,13.2979,4.59978,2470.203,2020-11-26T09:45:25Z
2020-11-26T07:47:30Z,42.805,6.029,13.2976,4.59978,2470.24,2020-11-26T09:48:28Z
2020-11-26T07:50:33Z,42.805,6.029,13.2973,4.59977,2470.25,2020-11-26T09:51:31Z
2020-11-26T07:53:36Z,42.805,6.029,13.2971,4.59978,2470.264,2020-11-26T09:54:34Z
2020-11-26T07:56:40Z,42.805,6.029,13.2976,4.59978,2470.25,2020-11-26T09:57:37Z
2020-11-26T07:59:43Z,42.805,6.029,13.2973,4.59977,2470.264,2020-11-26T10:00:40Z
2020-11-26T08:02:46Z,42.805,6.029,13.2973,4.59978,2470.287,2020-11-26T10:03:43Z
2020-11-26T08:05:49Z,42.805,6.029,13.2976,4.59978,2470.273,2020-11-26T10:06:46Z
2020-11-26T08:08:52Z,42.805,6.029,13.2976,4.59978,2470.273,2020-11-26T10:09:49Z
2020-11-26T08:11:55Z,42.805,6.029,13.2974,4.59978,2470.25,2020-11-26T10:12:53Z
2020-11-26T08:14:58Z,42.805,6.029,13.2974,4.59978,2470.25,2020-11-26T10:15:56Z
2020-11-26T08:18:01Z,42.805,6.029,13.2975,4.59977,2470.24,2020-11-26T10:18:59Z
2020-11-26T08:21:05Z,42.805,6.029,13.2976,4.59978,2470.25,2020-11-26T10:22:02Z
2020-11-26T08:24:08Z,42.805,6.029,13.2974,4.59978,2470.25,2020-11-26T10:25:05Z
2020-11-26T08:27:11Z,42.805,6.029,13.2976,4.59978,2470.287,2020-11-26T10:28:08Z
2020-11-26T08:30:14Z,42.805,6.029,13.2971,4.59978,2470.25,2020-11-26T10:31:11Z
2020-11-26T08:33:17Z,42.805,6.029,13.2975,4.59978,2470.264,2020-11-26T10:34:14Z
2020-11-26T08:36:20Z,42.805,6.029,13.2976,4.59978,2470.227,2020-11-26T10:37:18Z
2020-11-26T08:39:23Z,42.805,6.029,13.2975,4.59978,2470.264,2020-11-26T10:40:21Z
2020-11-26T08:42:26Z,42.805,6.029,13.2979,4.59978,2470.227,2020-11-26T10:43:24Z
2020-11-26T08:45:30Z,42.805,6.029,13.2974,4.59978,2470.25,2020-11-26T10:46:27Z
2020-11-26T08:48:33Z,42.805,6.029,13.2976,4.59978,2470.24,2020-11-26T10:49:30Z
2020-11-26T08:51:36Z,42.805,6.029,13.2975,4.59978,2470.227,2020-11-26T10:52:33Z
2020-11-26T08:54:39Z,42.805,6.029,13.2974,4.59978,2470.227,2020-11-26T10:55:36Z
2020-11-26T08:57:42Z,42.805,6.029,13.2975,4.59978,2470.25,2020-11-26T10:58:40Z
2020-11-26T09:00:45Z,42.805,6.029,13.2977,4.59978,2470.227,2020-11-26T11:01:43Z
2020-11-26T09:03:48Z,42.805,6.029,13.2975,4.59978,2470.227,2020-11-26T11:04:46Z
2020-11-26T09:06:51Z,42.805,6.029,13.2971,4.59978,2470.227,2020-11-26T11:07:49Z
2020-11-26T09:09:55Z,42.805,6.029,13.2976,4.59978,2470.227,2020-11-26T11:10:52Z
2020-11-26T09:12:58Z,42.805,6.029,13.2974,4.59978,2470.24,2020-11-26T11:13:55Z
2020-11-26T09:16:01Z,42.805,6.029,13.2975,4.59978,2470.264,2020-11-26T11:16:58Z
2020-11-26T09:19:04Z,42.805,6.029,13.2974,4.59978,2470.25,2020-11-26T11:20:01Z
2020-11-26T09:22:07Z,42.805,6.029,13.2976,4.59978,2470.227,2020-11-26T11:23:05Z
2020-11-26T09:25:10Z,42.805,6.029,13.2974,4.59978,2470.227,2020-11-26T11:26:08Z
2020-11-26T09:28:13Z,42.805,6.029,13.2976,4.59980,2470.227,2020-11-26T11:29:11Z
2020-11-26T09:31:16Z,42.805,6.029,13.2976,4.59978,2470.217,2020-11-26T11:32:14Z
2020-11-26T09:34:20Z,42.805,6.029,13.2979,4.59978,2470.227,2020-11-26T11:35:17Z
2020-11-26T09:37:23Z,42.805,6.029,13.2973,4.59978,2470.227,2020-11-26T11:38:20Z
2020-11-26T09:40:26Z,42.805,6.029,13.2976,4.59978,2470.203,2020-11-26T11:41:23Z
2020-11-26T09:43:29Z,42.805,6.029,13.2971,4.59978,2470.227,2020-11-26T11:44:26Z
2020-11-26T09:46:32Z,42.805,6.029,13.2979,4.59978,2470.203,2020-11-26T11:47:30Z
2020-11-26T09:49:35Z,42.805,6.029,13.2975,4.59978,2470.227,2020-11-26T11:50:33Z
2020-11-26T09:52:38Z,42.805,6.029,13.2979,4.59978,2470.227,2020-11-26T11:53:36Z
2020-11-26T09:55:42Z,42.805,6.029,13.2978,4.59979,2470.227,2020-11-26T11:56:39Z
2020-11-26T09:58:45Z,42.805,6.029,13.2974,4.59978,2470.203,2020-11-26T11:59:42Z
2020-11-26T10:01:48Z,42.805,6.029,13.2978,4.59978,2470.203,2020-11-26T12:02:45Z
2020-11-26T10:04:51Z,42.805,6.029,13.2975,4.59978,2470.227,2020-11-26T12:05:48Z
2020-11-26T10:07:54Z,42.805,6.029,13.2976,4.59978,2470.24,2020-11-26T12:08:51Z
2020-11-26T10:10:57Z,42.805,6.029,13.2975,4.59978,2470.24,2020-11-26T12:11:55Z
2020-11-26T10:14:00Z,42.805,6.029,13.2975,4.59978,2470.227,2020-11-26T12:14:58Z
2020-11-26T10:17:03Z,42.805,6.029,13.2977,4.59978,2470.18,2020-11-26T12:18:01Z
2020-11-26T10:20:07Z,42.805,6.029,13.2976,4.59978,2470.264,2020-11-26T12:21:04Z
2020-11-26T10:23:10Z,42.805,6.029,13.2976,4.59978,2470.203,2020-11-26T12:24:07Z
2020-11-26T10:26:13Z,42.805,6.029,13.2973,4.59978,2470.227,2020-11-26T12:27:10Z
2020-11-26T10:29:16Z,42.805,6.029,13.2979,4.59978,2470.213,2020-11-26T12:30:13Z
2020-11-26T10:32:19Z,42.805,6.029,13.2979,4.59979,2470.203,2020-11-26T12:33:16Z
2020-11-26T10:35:22Z,42.805,6.029,13.2976,4.59979,2470.217,2020-11-26T12:36:20Z
2020-11-26T10:38:25Z,42.805,6.029,13.2976,4.59979,2470.25,2020-11-26T12:39:23Z
2020-11-26T10:41:28Z,42.805,6.029,13.2975,4.59978,2470.227,2020-11-26T12:42:26Z
2020-11-26T10:44:32Z,42.805,6.029,13.2978,4.59980,2470.18,2020-11-26T12:45:29Z
2020-11-26T10:47:35Z,42.805,6.029,13.2979,4.59979,2470.203,2020-11-26T12:48:32Z
2020-11-26T10:50:38Z,42.805,6.029,13.2977,4.59980,2470.203,2020-11-26T12:51:35Z
2020-11-26T10:53:41Z,42.805,6.029,13.2973,4.59979,2470.203,2020-11-26T12:54:38Z
2020-11-26T10:56:44Z,42.805,6.029,13.2976,4.59978,2470.227,2020-11-26T12:57:41Z
2020-11-26T10:59:47Z,42.805,6.029,13.2973,4.59979,2470.203,2020-11-26T13:00:45Z
2020-11-26T11:02:50Z,42.805,6.029,13.2973,4.59979,2470.24,2020-11-26T13:03:48Z
2020-11-26T11:05:53Z,42.805,6.029,13.2974,4.59979,2470.194,2020-11-26T13:06:51Z
2020-11-26T11:08:57Z,42.805,6.029,13.2976,4.59979,2470.227,2020-11-26T13:09:54Z
2020-11-26T11:12:00Z,42.805,6.029,13.2979,4.59978,2470.227,2020-11-26T13:12:57Z
2020-11-26T11:15:03Z,42.805,6.029,13.2972,4.59978,2470.18,2020-11-26T13:16:00Z
2020-11-26T11:18:06Z,42.805,6.029,13.2976,4.59978,2470.24,2020-11-26T13:19:03Z
2020-11-26T11:21:09Z,42.805,6.029,13.2975,4.59979,2470.227,2020-11-26T13:22:06Z
2020-11-26T11:24:12Z,42.805,6.029,13.2976,4.59979,2470.203,2020-11-26T13:25:10Z
2020-11-26T11:27:15Z,42.805,6.029,13.2975,4.59978,2470.203,2020-11-26T13:28:13Z
2020-11-26T11:30:18Z,42.805,6.029,13.2977,4.59978,2470.227,2020-11-26T13:31:16Z
2020-11-26T11:33:22Z,42.805,6.029,13.2976,4.59978,2470.227,2020-11-26T13:34:19Z
2020-11-26T11:36:25Z,42.805,6.029,13.2980,4.59978,2470.203,2020-11-26T13:37:22Z
2020-11-26T11:39:28Z,42.805,6.029,13.2977,4.59979,2470.227,2020-11-26T13:40:25Z
2020-11-26T11:42:31Z,42.805,6.029,13.2974,4.59978,2470.217,2020-11-26T13:43:28Z
2020-11-26T11:45:34Z,42.805,6.029,13.2976,4.59979,2470.18,2020-11-26T13:46:31Z
2020-11-26T11:48:37Z,42.805,6.029,13.2976,4.59980,2470.24,2020-11-26T13:49:35Z
2020-11-26T11:51:40Z,42.805,6.029,13.2976,4.59979,2470.25,2020-11-26T13:52:38Z
2020-11-26T11:54:43Z,42.805,6.029,13.2975,4.59978,2470.18,2020-11-26T13:55:41Z
2020-11-26T11:57:47Z,42.805,6.029,13.2977,4.59978,2470.18,2020-11-26T13:58:44Z
2020-11-26T12:00:50Z,42.805,6.029,13.2982,4.59979,2470.203,2020-11-26T14:01:47Z
2020-11-26T12:03:53Z,42.805,6.029,13.2973,4.59978,2470.203,2020-11-26T14:04:50Z
2020-11-26T12:06:56Z,42.805,6.029,13.2979,4.59978,2470.203,2020-11-26T14:07:53Z
2020-11-26T12:09:59Z,42.805,6.029,13.2973,4.59978,2470.24,2020-11-26T14:10:57Z
2020-11-26T12:13:02Z,42.805,6.029,13.2973,4.59978,2470.217,2020-11-26T14:14:00Z
2020-11-26T12:16:05Z,42.805,6.029,13.2978,4.59978,2470.203,2020-11-26T14:17:03Z
2020-11-26T12:19:08Z,42.805,6.029,13.2975,4.59979,2470.18,2020-11-26T14:20:06Z
2020-11-26T12:22:12Z,42.805,6.029,13.2975,4.59978,2470.24,2020-11-26T14:23:09Z
2020-11-26T12:25:15Z,42.805,6.029,13.2975,4.59978,2470.24,2020-11-26T14:26:12Z
2020-11-26T12:28:18Z,42.805,6.029,13.2973,4.59979,2470.227,2020-11-26T14:29:15Z
2020-11-26T12:31:21Z,42.805,6.029,13.2976,4.59978,2470.217,2020-11-26T14:32:18Z
2020-11-26T12:34:24Z,42.805,6.029,13.2979,4.59978,2470.203,2020-11-26T14:35:22Z
2020-11-26T12:37:27Z,42.805,6.029,13.2976,4.59979,2470.203,2020-11-26T14:38:25Z
2020-11-26T12:40:30Z,42.805,6.029,13.2973,4.59979,2470.25,2020-11-26T14:41:28Z
2020-11-26T12:43:34Z,42.805,6.029,13.2979,4.59978,2470.227,2020-11-26T14:44:31Z
2020-11-26T12:46:37Z,42.805,6.029,13.2975,4.59978,2470.24,2020-11-26T14:47:34Z
2020-11-26T12:49:40Z,42.805,6.029,13.2978,4.59978,2470.25,2020-11-26T14:50:37Z
2020-11-26T12:52:43Z,42.805,6.029,13.2975,4.59978,2470.203,2020-11-26T14:53:40Z
2020-11-26T12:55:46Z,42.805,6.029,13.2980,4.59979,2470.24,2020-11-26T14:56:43Z
2020-11-26T12:58:49Z,42.805,6.029,13.2976,4.59978,2470.227,2020-11-26T14:59:47Z
2020-11-26T13:01:52Z,42.805,6.029,13.2978,4.59980,2470.227,2020-11-26T15:02:50Z
2020-11-26T13:04:55Z,42.805,6.029,13.2974,4.59980,2470.24,2020-11-26T15:05:53Z
2020-11-26T13:07:59Z,42.805,6.029,13.2976,4.59978,2470.25,2020-11-26T15:08:56Z
2020-11-26T13:11:02Z,42.805,6.029,13.2974,4.59980,2470.264,2020-11-26T15:11:59Z
2020-11-26T13:14:05Z,42.805,6.029,13.2979,4.59978,2470.227,2020-11-26T15:15:02Z
2020-11-26T13:17:08Z,42.805,6.029,13.2976,4.59979,2470.227,2020-11-26T15:18:05Z
2020-11-26T13:20:11Z,42.805,6.029,13.2978,4.59978,2470.203,2020-11-26T15:21:08Z
2020-11-26T13:23:14Z,42.805,6.029,13.2975,4.59980,2470.227,2020-11-26T15:24:12Z
2020-11-26T13:26:17Z,42.805,6.029,13.2975,4.59979,2470.24,2020-11-26T15:27:15Z
2020-11-26T13:29:20Z,42.805,6.029,13.2975,4.59978,2470.264,2020-11-26T15:30:18Z
2020-11-26T13:32:24Z,42.805,6.029,13.2976,4.59979,2470.25,2020-11-26T15:33:21Z
2020-11-26T13:35:27Z,42.805,6.029,13.2976,4.59979,2470.264,2020-11-26T15:36:24Z
2020-11-26T13:38:30Z,42.805,6.029,13.2977,4.59978,2470.227,2020-11-26T15:39:27Z
2020-11-26T13:41:33Z,42.805,6.029,13.2976,4.59979,2470.25,2020-11-26T15:42:30Z
2020-11-26T13:44:36Z,42.805,6.029,13.2974,4.59980,2470.287,2020-11-26T15:45:33Z
2020-11-26T13:47:39Z,42.805,6.029,13.2976,4.59978,2470.273,2020-11-26T15:48:37Z
2020-11-26T13:50:42Z,42.805,6.029,13.2973,4.59979,2470.264,2020-11-26T15:51:40Z
2020-11-26T13:53:45Z,42.805,6.029,13.2977,4.59978,2470.273,2020-11-26T15:54:43Z
2020-11-26T13:56:49Z,42.805,6.029,13.2976,4.59980,2470.264,2020-11-26T15:57:46Z
2020-11-26T13:59:52Z,42.805,6.029,13.2978,4.59980,2470.227,2020-11-26T16:00:49Z
2020-11-26T14:02:55Z,42.805,6.029,13.2979,4.59980,2470.25,2020-11-26T16:03:52Z
2020-11-26T14:05:58Z,42.805,6.029,13.2974,4.59979,2470.25,2020-11-26T16:06:55Z
2020-11-26T14:09:01Z,42.805,6.029,13.2977,4.59980,2470.25,2020-11-26T16:09:58Z
2020-11-26T14:12:04Z,42.805,6.029,13.2979,4.59981,2470.273,2020-11-26T16:13:02Z
2020-11-26T14:15:07Z,42.805,6.029,13.2976,4.59980,2470.297,2020-11-26T16:16:05Z
2020-11-26T14:18:10Z,42.805,6.029,13.2974,4.59979,2470.273,2020-11-26T16:19:08Z
2020-11-26T14:21:14Z,42.805,6.029,13.2980,4.59980,2470.297,2020-11-26T16:22:11Z
2020-11-26T14:24:17Z,42.805,6.029,13.2975,4.59979,2470.25,2020-11-26T16:25:14Z
2020-11-26T14:27:20Z,42.805,6.029,13.2979,4.59980,2470.273,2020-11-26T16:28:17Z
2020-11-26T14:30:23Z,42.805,6.029,13.2979,4.59981,2470.31,2020-11-26T16:31:20Z
2020-11-26T14:33:26Z,42.805,6.029,13.2976,4.59979,2470.297,2020-11-26T16:34:23Z
2020-11-26T14:36:29Z,42.805,6.029,13.2978,4.59980,2470.334,2020-11-26T16:37:27Z
2020-11-26T14:39:32Z,42.805,6.029,13.2978,4.59980,2470.273,2020-11-26T16:40:30Z
2020-11-26T14:42:35Z,42.805,6.029,13.2974,4.59979,2470.297,2020-11-26T16:43:33Z
2020-11-26T14:45:39Z,42.805,6.029,13.2976,4.59979,2470.31,2020-11-26T16:46:36Z
2020-11-26T14:48:42Z,42.805,6.029,13.2977,4.59981,2470.297,2020-11-26T16:49:39Z
2020-11-26T14:51:45Z,42.805,6.029,13.2976,4.59980,2470.297,2020-11-26T16:52:42Z
2020-11-26T14:54:48Z,42.805,6.029,13.2972,4.59980,2470.31,2020-11-26T16:55:45Z
2020-11-26T14:57:51Z,42.805,6.029,13.2975,4.59981,2470.334,2020-11-26T16:58:49Z
2020-11-26T15:00:54Z,42.805,6.029,13.2976,4.59980,2470.297,2020-11-26T17:01:52Z